Akron, CO

2:48 PM MST on December 16, 2017 (GMT -0700)
Akron-Washington County

Weather History for KAKO - November, 2013

Change the Weather History Date:

Monday, November 25, 2013

  Actual Average Record
Temperature  
Mean Temperature 31 °F 33 °F  
Max Temperature 40 °F 45 °F 74 °F (1960)
Min Temperature 21 °F 21 °F -6 °F (1993)
Degree Days  
Heating Degree Days 34    
Month to date heating degree days 649  
Cooling Degree Days 0    
Month to date cooling degree days 0  
Moisture  
Dew Point 21 °F    
Average Humidity 70    
Maximum Humidity 92    
Minimum Humidity 48    
Precipitation  
Precipitation 0.00 in 0.02 in 0.55 in (1944)
Month to date precipitation 0.16 0.50  
Year to date precipitation 16.96 16.26  
Snow  
Snow 0.00 in - - ()
Snow Depth -    
Sea Level Pressure  
Sea Level Pressure 30.27 in    
Wind  
Wind Speed 11 mph (NW)    
Max Wind Speed 17 mph    
Max Gust Speed 22 mph    
Visibility 10 miles    
Events      
T = Trace of Precipitation, MM = Missing Value Source: NWS Daily Summary

Daily Weather History Graph

Daily Weather History Graph

Search for Another Location

Airport or City:

Trip Planner

Search our weather history database for the weather conditions in past years. The results will help you decide how hot, cold, wet, or windy it might be!

Date:

Astronomy

Nov. 25, 2013 Rise Set
Actual Time 6:50 AM MST 4:29 PM MST
Civil Twilight 6:20 AM MST 4:59 PM MST
Nautical Twilight 5:46 AM MST 5:32 PM MST
Astronomical Twilight 5:14 AM MST 6:05 PM MST
Moon 11:56 PM MST (11/25) 12:07 PM MST (11/25)
Length of Visible Light 10h 39m
Length of Day
9h 39m
Waning Gibbous, 50% of the Moon is Illuminated
Nov 25
Waning Gibbous
Nov 25
Last Quarter
Dec 2
New
Dec 9
First Quarter
Dec 17
Full

Hourly Weather History & Observations

Time (MST) Temp. Windchill Dew Point Humidity Pressure Visibility Wind Dir Wind Speed Gust Speed Precip Events Conditions
12:53 AM 27.0 °F 17.3 °F 24.1 °F 89% 30.05 in 10.0 mi NNW 10.4 mph - N/A   Overcast
1:53 AM 27.0 °F 16.1 °F 21.9 °F 81% 30.08 in 10.0 mi NNW 12.7 mph - N/A   Overcast
2:53 AM 27.0 °F 15.6 °F 21.0 °F 78% 30.11 in 10.0 mi NNW 13.8 mph - N/A   Overcast
3:53 AM 26.1 °F 15.6 °F 19.0 °F 75% 30.13 in 10.0 mi NNW 11.5 mph - N/A   Overcast
4:53 AM 24.1 °F 12.0 °F 18.0 °F 77% 30.17 in 10.0 mi NNW 13.8 mph - N/A   Partly Cloudy
5:53 AM 21.9 °F 10.4 °F 17.1 °F 82% 30.22 in 10.0 mi NNW 11.5 mph - N/A   Clear
6:53 AM 21.9 °F 11.0 °F 17.1 °F 82% 30.25 in 10.0 mi NNW 10.4 mph - N/A   Partly Cloudy
7:53 AM 27.0 °F 17.3 °F 19.9 °F 75% 30.27 in 10.0 mi North 10.4 mph - N/A   Mostly Cloudy
8:53 AM 30.0 °F 19.5 °F 21.9 °F 72% 30.29 in 10.0 mi North 13.8 mph - N/A   Overcast
9:53 AM 32.0 °F 22.5 °F 23.0 °F 69% 30.31 in 10.0 mi North 12.7 mph - N/A   Overcast
10:53 AM 36.0 °F 27.1 °F 23.0 °F 59% 30.30 in 10.0 mi North 13.8 mph - N/A   Overcast
11:53 AM 39.0 °F 31.8 °F 21.9 °F 50% 30.28 in 10.0 mi NNW 11.5 mph - N/A   Overcast
12:53 PM 39.0 °F 31.8 °F 21.0 °F 49% 30.27 in 10.0 mi NNW 11.5 mph - N/A   Overcast
1:53 PM 39.9 °F 33.9 °F 21.0 °F 47% 30.26 in 10.0 mi NNW 9.2 mph - N/A   Overcast
2:53 PM 37.9 °F 30.5 °F 21.9 °F 53% 30.29 in 10.0 mi NNW 11.5 mph - N/A   Overcast
3:53 PM 37.9 °F 34.4 °F 21.9 °F 53% 30.30 in 10.0 mi NNW 4.6 mph - N/A   Overcast
4:53 PM 35.1 °F 31.0 °F 21.0 °F 57% 30.32 in 10.0 mi NW 4.6 mph - N/A   Overcast
5:53 PM 28.9 °F 23.9 °F 21.0 °F 72% 30.35 in 10.0 mi West 4.6 mph - N/A   Clear
6:53 PM 27.0 °F 18.0 °F 21.0 °F 78% 30.37 in 10.0 mi West 9.2 mph - N/A   Clear
7:53 PM 30.0 °F 22.4 °F 21.0 °F 69% 30.35 in 10.0 mi WNW 8.1 mph - N/A   Clear
8:53 PM 28.0 °F 18.6 °F 21.0 °F 75% 30.37 in 10.0 mi NW 10.4 mph - N/A   Clear
9:53 PM 30.0 °F 21.7 °F 21.0 °F 69% 30.35 in 10.0 mi WNW 9.2 mph - N/A   Clear
10:53 PM 28.9 °F 19.8 °F 21.0 °F 72% 30.35 in 10.0 mi NW 10.4 mph - N/A   Mostly Cloudy
11:53 PM 28.0 °F 19.3 °F 21.9 °F 78% 30.34 in 10.0 mi WNW 9.2 mph - N/A   Clear